Location: Brunembert
(50.7122°N, 1.8935°E)
Time: 04:43:23
(UTC+00:00)

SL-16 R/B - Pass Details

Date: 22 April 2021
Orbit: 840 x 849 km, 71.0° (Epoch: 06 May)

Event Time Altitude Azimuth Distance (km) Brightness Sun altitude
Rises 19:30:02 0° 332° (NNW) 3,426 6.4 -5.3°
Reaches altitude 10° 19:32:45 10° 342° (NNW) 2,486 5.4 -5.7°
Maximum altitude 19:37:54 34° 46° (NE) 1,377 3.2 -6.4°
Drops below altitude 10° 19:43:01 10° 111° (ESE) 2,469 4.0 -7.1°
Enters shadow 19:43:25 - 113° (ESE) 2,604 4.1 -7.1°
